Location: Berg
(48.4333°N, 13.9167°E)
Time: 08:02:36
(UTC+00:00)

NOSS 2-2 (E) - Pass Details

Date: 18 September 2020
Orbit: 468 x 1739 km, 63.3° (Epoch: 22 October)

Event Time Altitude Azimuth Distance (km) Brightness Sun altitude
Rises 19:12:47 0° 237° (WSW) 2,498 7.1 -20.4°
Reaches altitude 10° 19:14:51 10° 244° (WSW) 1,645 6.2 -20.7°
Maximum altitude 19:18:17 46° 319° (NW) 702 4.2 -21.2°
Drops below altitude 10° 19:22:18 10° 34° (NNE) 1,931 6.0 -21.8°
Sets 19:24:55 0° 40° (NE) 2,999 7.0 -22.2°
